Regional Weather Roundup
Issued by NWS Albany, NY

Home | Current Version | Previous Version | Text Only | Print | Product List | Glossary On
Versions: 1 2 3 4 5 6 7 8 9 10 11 12 13 14 15 16 17 18 19 20 21 22 23 24 25 26 27 28 29 30 31 32 33 34 35 36 37 38 39 40 41 42 43 44 45 46 47 48 49 50
000
ASUS41 KALY 292010
RWRALY

NEW YORK STATE HOURLY WEATHER ROUNDUP
NATIONAL WEATHER SERVICE ALBANY NY
400 PM EDT SAT AUG 29 2015

NOTE: "FAIR" INDICATES FEW OR NO CLOUDS BELOW 12,000 FEET WITH NO
SIGNIFICANT WEATHER AND/OR NO OBSTRUCTIONS TO VISIBILITY.

NYZ032-033-038>043-046>054-057>066-NYZ062>081-292100-
EAST


CITY           SKY/WX    TMP DP  RH WIND       PRES   REMARKS
ALBANY         PTSUNNY   79  58  48 S9        30.11F
GLENS FALLS    PTSUNNY   79  57  46 SW12      30.09F
POUGHKEEPSIE   MOSUNNY   83  56  39 S5        30.10F
NEWBURGH       MOSUNNY   81  59  47 CALM      30.13F
MONTGOMERY     MOSUNNY   82  59  45 W9        30.11F
WHITE PLAINS   MOSUNNY   82  55  39 E8        30.12F
ISLIP          PTSUNNY   80  59  48 SW13      30.12F
NEW YORK CITY  PTSUNNY   84  58  40 S16       30.11F
CENTRAL PARK   MOSUNNY   87  54  32 CALM      30.14F
$$

NYZ005>009-017-018-044>046-055-056-292100-
CENTRAL


CITY           SKY/WX    TMP DP  RH WIND       PRES   REMARKS
FULTON         MOSUNNY   75  61  61 W7        30.12F
SYRACUSE       PTSUNNY   79  56  45 W6        30.09F
ROME           MOSUNNY   79  57  46 SW7       30.11F
ELMIRA         MOSUNNY   80  57  45 SW6       30.11F
BINGHAMTON     SUNNY     78  58  49 NW7       30.14F
MONTICELLO     PTSUNNY   77  59  53 S8        30.17F
$$

NYZ026>034-041>043-292100-
NORTH


CITY           SKY/WX    TMP DP  RH WIND       PRES   REMARKS
WATERTOWN      MOSUNNY   72  59  63 SW9       30.11S
FORT DRUM      NOT AVBL
MASSENA        CLOUDY    74  60  61 W9        30.09F
SARANAC LAKE   PTSUNNY   74  53  48 W10       30.12S
PLATTSBURGH    PTSUNNY   74  60  61 S7        30.07F
$$

NYZ001>004-010>016-019>021-292100-
WEST


CITY           SKY/WX    TMP DP  RH WIND       PRES   REMARKS
NIAGARA FALLS  PTSUNNY   76  57  51 VRB3      30.11F
BUFFALO        PTSUNNY   77  55  46 S9        30.11F
DUNKIRK        PTSUNNY   76  57  51 N6        30.12F
JAMESTOWN      PTSUNNY   73  55  53 SW6       30.15F
WELLSVILLE     PTSUNNY   76  53  44 NW3       30.19F
ROCHESTER      CLOUDY    76  56  49 NW5       30.12F
PENN YAN       CLOUDY    77  59  53 N3        30.13F
$$

             KEY
       WCI = WIND CHILL INDEX
       VSB = VISIBILITY
       HX  = HEAT INDEX
$$


USA.gov is the U.S. government's official web portal to all federal, state and local government web resources and services.